Location: Newark
(36.0797°N, 3.9744°E)
Time: 12:46:26
(UTC+00:00)

Vanguard 2 Rocket - Pass Details

Date: 10 December 2019
Orbit: 554 x 3326 km, 32.9° (Epoch: 25 January)

Event Time Altitude Azimuth Distance (km) Brightness Sun altitude
Rises 20:15:49 0° 268° (W) 5,666 11.7 -44.8°
Reaches altitude 10° 20:20:16 10° 267° (W) 4,200 10.8 -45.7°
Enters shadow 20:26:35 36° 259° (WSW) 2,079 8.9 -47.0°
Maximum altitude 20:30:23 70° 186° (S) 1,220 - -47.8°
Drops below altitude 10° 20:36:04 10° 104° (ESE) 2,436 - -48.9°
Sets 20:38:03 0° 101° (E) 3,176 - -49.3°
